Theta_e
267 267 267 267 267 268 268 268 268 267 267 267 267 267 267 268 268 268 269 269 269 269 269 269 269 269 269 269 269 269 269 269 269 269 270 270 270 270 270 270 271 271 271 271 272 273 273 273 274 274 274 275 275 276 276 276 276 277 277 278 278 279 280
267 267 267 267 267 267 267 267 267 267 267 267 267 267 267 267 268 268 268 269 269 269 269 269 269 269 269 269 269 269 269 269 269 269 269 270 270 270 270 270 270 270 271 271 271 272 272 273 273 273 273 274 274 275 275 275 276 276 276 277 277 278 279
267 267 267 267 267 267 267 267 267 267 267 266 266 266 267 267 268 268 269 269 269 269 269 269 269 269 269 269 269 268 269 269 269 269 269 269 269 269 270 270 270 270 270 270 271 271 271 272 272 272 273 273 274 274 275 275 275 276 276 276 277 277 278
267 266 266 266 266 266 266 266 266 266 266 266 266 266 266 266 267 268 268 269 269 269 269 269 269 269 269 269 268 268 269 269 269 269 269 269 269 269 269 270 270 270 270 270 270 270 271 271 272 272 273 273 274 274 274 275 275 276 276 276 276 276 277
266 266 266 266 266 266 266 266 266 266 266 266 266 266 266 266 266 267 268 268 268 268 269 269 269 269 269 269 268 268 268 268 268 268 268 269 269 269 269 269 269 269 270 270 270 270 270 271 271 272 273 273 274 274 275 275 275 275 275 276 276 276 276
266 266 266 266 266 266 266 266 266 266 266 265 265 265 266 266 266 267 267 268 268 268 268 269 269 269 269 269 268 268 268 268 268 268 268 268 268 269 269 269 269 269 269 270 270 270 270 270 270 271 272 272 273 274 274 275 275 275 275 275 275 276 276
266 266 266 265 266 266 266 266 265 265 265 265 265 265 265 266 266 267 267 268 268 268 268 268 268 269 269 269 269 269 269 269 268 268 268 268 268 268 268 269 269 269 269 269 269 270 270 270 270 270 271 271 272 273 273 274 275 275 275 275 275 275 276
265 265 265 265 265 265 265 265 265 265 265 265 265 265 265 265 266 267 267 268 268 268 268 268 268 268 268 269 269 269 269 269 269 269 269 269 269 268 268 268 268 269 269 269 269 269 270 270 270 270 270 271 272 272 273 273 274 275 275 275 275 275 275
265 265 265 265 265 265 265 265 265 265 264 264 264 264 265 265 266 267 267 267 267 267 267 267 268 268 268 269 270 270 270 270 270 269 269 269 269 269 268 268 269 269 269 269 269 269 269 270 270 270 271 271 271 272 272 273 274 274 274 275 275 275 275
265 265 265 265 265 265 265 265 264 264 264 265 265 265 264 265 265 266 266 267 267 267 267 267 268 268 268 269 270 270 270 270 271 270 271 271 270 270 269 269 269 269 269 269 269 269 269 270 270 270 270 271 271 272 272 273 273 273 274 274 275 275 275
265 265 265 265 265 265 264 264 264 264 265 266 266 266 266 265 265 265 266 266 267 267 267 268 268 268 269 269 270 270 271 271 271 272 272 272 272 271 271 270 269 269 269 269 269 269 270 270 270 270 270 270 271 271 272 272 272 273 273 274 274 274 275
265 264 264 264 264 264 264 264 264 264 265 266 267 268 268 267 267 267 267 267 267 268 268 268 269 269 270 270 271 271 271 271 272 272 273 274 274 273 273 272 271 271 270 269 269 269 270 270 270 270 270 270 270 271 271 271 272 272 272 273 273 274 274
264 264 264 264 264 264 264 263 263 264 265 266 267 268 269 269 269 268 268 268 268 268 269 269 270 270 271 272 272 272 272 272 272 273 273 274 274 275 275 274 273 272 272 271 270 270 270 270 270 270 270 271 271 271 271 271 272 272 272 272 273 273 274
264 264 264 264 264 263 263 263 263 263 265 266 267 268 269 269 270 269 270 270 270 270 270 271 271 272 272 273 273 273 273 273 273 273 274 274 274 275 275 275 275 274 274 273 272 271 271 271 271 271 272 272 271 271 271 272 272 272 272 272 272 273 273
264 264 264 263 263 263 262 262 262 263 264 266 267 268 269 269 270 270 271 271 271 271 272 272 272 273 273 274 274 274 275 275 274 274 274 274 274 275 275 275 275 275 275 274 273 272 273 273 272 272 273 272 272 272 272 272 273 273 273 273 273 273 273
264 263 263 263 263 262 262 262 262 263 264 266 267 268 269 269 270 270 271 271 272 272 272 272 273 273 274 274 275 276 276 276 276 275 275 274 275 275 275 275 276 276 275 275 275 274 274 274 273 273 273 273 273 272 273 273 273 274 274 274 274 274 275
263 263 263 262 262 262 261 261 262 263 264 266 267 268 269 269 270 271 272 272 272 272 273 273 274 274 275 276 276 277 278 278 277 276 276 275 275 275 274 275 276 276 276 276 276 276 276 275 275 274 274 274 274 274 273 273 273 273 274 274 274 275 275
263 262 262 262 261 261 261 261 261 262 264 266 267 268 269 269 270 271 272 272 273 273 274 274 275 276 276 277 277 278 278 278 278 278 277 276 276 275 274 275 276 276 276 276 276 277 277 277 277 276 276 275 275 275 275 274 273 274 274 274 274 275 275
262 262 261 261 261 261 261 261 261 262 263 265 267 268 269 270 270 271 272 273 273 274 275 275 276 276 277 277 277 277 278 278 278 278 278 277 276 275 275 276 276 275 276 276 276 277 277 277 277 277 277 277 277 276 276 275 275 275 274 274 274 275 275
261 261 261 260 260 260 260 260 261 261 263 265 267 269 270 270 271 272 273 273 274 275 275 276 276 276 277 277 277 277 277 277 278 278 278 278 277 276 276 277 277 276 276 276 276 276 277 276 277 277 277 277 277 277 277 277 276 276 275 274 274 274 275
261 260 260 260 260 260 260 260 261 262 263 264 266 268 270 271 272 272 273 274 275 275 275 275 275 276 276 276 276 276 277 277 277 278 278 278 278 278 278 279 278 277 277 276 275 276 275 275 276 276 276 276 277 277 277 277 277 277 276 275 275 274 275
260 260 260 259 259 260 260 261 262 262 263 265 266 268 270 271 272 273 274 274 275 274 274 274 275 275 275 275 276 276 276 277 277 277 278 278 279 279 279 279 279 278 278 277 276 275 275 275 275 275 275 276 276 277 277 277 277 277 277 276 276 275 275
259 259 259 259 259 259 261 262 263 263 264 265 267 268 270 272 273 274 274 274 274 274 274 274 275 275 275 275 276 276 276 276 277 277 278 278 279 279 279 279 278 278 278 278 277 276 275 275 275 275 275 275 276 276 277 276 276 277 277 277 277 276 276
259 258 258 258 259 260 261 263 264 265 265 266 267 269 271 272 273 274 274 274 274 274 274 274 274 274 275 275 275 275 276 276 276 277 278 278 278 278 278 278 277 277 278 278 278 277 276 276 276 276 276 276 276 276 276 276 276 276 276 277 277 277 277
258 258 258 259 259 260 261 263 264 265 266 267 268 269 271 273 273 274 274 274 274 274 273 274 274 274 275 275 275 275 276 276 276 277 277 277 277 277 277 277 277 276 277 278 278 277 277 277 277 277 277 277 276 276 276 276 276 275 275 275 276 276 276
258 258 259 259 260 260 262 263 264 266 267 268 269 270 271 272 272 272 272 273 273 273 273 274 274 274 274 275 275 275 275 275 276 276 276 276 276 276 276 276 276 276 276 277 277 278 277 277 277 277 277 276 276 276 276 276 275 275 275 274 274 275 275
258 259 260 260 261 261 262 263 265 267 268 269 270 270 271 271 271 271 271 271 272 273 273 273 273 273 273 274 274 274 275 275 275 275 275 275 275 275 275 275 275 275 275 276 276 277 277 277 277 277 277 276 276 276 276 276 275 275 275 274 274 274 274
259 259 260 261 261 262 263 264 265 267 269 269 270 270 270 270 270 270 271 271 272 272 272 272 272 272 273 273 274 274 274 274 274 274 274 274 274 274 274 274 274 274 274 274 275 276 276 277 277 277 277 276 276 276 276 276 275 275 275 274 274 274 274
259 260 260 261 262 263 263 264 266 268 269 269 270 270 270 270 270 271 271 271 272 272 272 272 272 272 272 273 273 273 273 273 273 273 273 272 272 272 272 273 273 273 273 273 273 274 274 275 276 277 278 277 277 276 276 276 275 275 275 275 275 274 274
261 261 261 262 263 264 265 266 268 269 269 270 270 270 271 271 271 272 272 272 272 272 272 272 272 272 272 272 272 272 271 271 271 271 271 270 270 271 271 271 271 272 272 272 272 272 273 273 274 275 277 278 278 277 277 277 276 276 276 276 276 276 275
263 263 263 263 264 266 266 267 268 269 270 270 271 271 271 272 272 272 272 272 272 272 272 272 271 271 270 270 270 270 269 269 269 269 269 269 269 269 269 270 270 270 270 270 271 271 271 272 272 273 275 276 277 278 278 278 277 277 277 277 277 277 277
265 265 266 266 266 267 267 268 268 269 270 270 270 271 271 271 271 271 271 271 271 271 271 270 270 269 269 269 268 268 267 267 267 267 267 267 267 267 268 268 268 268 269 269 269 270 270 270 271 272 272 273 275 276 277 278 278 278 278 278 278 278 278
266 267 268 268 269 269 268 268 269 269 270 270 270 271 270 270 270 270 270 270 270 269 269 269 269 268 268 267 267 267 266 266 265 265 265 266 266 266 267 267 267 267 267 267 267 268 269 269 270 270 271 272 273 274 275 276 276 277 278 278 278 279 279
267 268 268 269 270 270 269 269 269 269 269 270 270 269 269 269 269 268 268 268 268 268 267 267 267 267 266 266 266 265 265 264 264 264 264 264 264 265 265 266 266 266 266 266 267 267 267 268 268 269 270 270 271 272 272 273 274 274 275 276 277 278 279
266 266 267 267 268 268 268 269 269 269 269 269 268 268 267 267 267 266 266 266 266 266 266 266 265 265 265 264 264 264 264 263 263 263 263 263 264 264 264 265 265 265 265 265 266 266 267 267 267 267 268 269 269 270 271 271 272 273 273 274 275 276 277
264 265 265 266 266 267 267 268 268 268 268 267 266 266 266 265 265 264 263 263 264 264 264 263 263 263 263 263 263 263 262 262 262 262 262 263 263 263 264 264 264 264 265 265 265 265 266 266 266 267 267 267 268 268 269 270 270 271 272 272 273 274 275
Wind_Speed
26 25 23 22 21 21 22 22 21 21 20 19 19 19 18 17 16 17 17 16 16 17 18 18 19 20 20 19 18 19 18 17 17 17 17 17 17 18 17 17 17 14 13 14 17 18 19 21 21 21 21 21 22 23 21 19 18 17 16 15 14 13 11
26 25 24 24 24 23 24 24 24 22 22 21 21 20 18 17 16 17 18 17 18 18 18 18 19 20 20 19 19 21 21 20 20 19 18 18 18 18 18 18 19 17 14 14 16 18 19 19 18 19 20 19 21 23 22 21 21 20 19 18 17 16 15
27 26 26 25 25 26 26 25 25 23 23 23 22 21 20 17 16 16 17 17 17 16 15 16 18 19 20 19 19 21 22 22 22 21 21 21 20 19 20 20 20 19 17 16 17 18 18 18 18 19 19 17 18 19 18 20 23 21 19 18 18 18 18
27 27 26 26 26 26 26 26 25 24 24 24 23 23 22 21 20 19 17 17 16 15 14 14 15 16 18 18 19 21 23 23 23 22 22 22 22 21 21 21 21 21 20 19 18 17 17 18 18 19 18 16 16 16 16 18 19 19 19 20 20 19 20
28 27 27 26 26 27 27 26 25 24 24 23 23 23 23 22 21 19 19 19 18 18 17 16 17 19 21 20 20 20 21 21 22 23 22 22 22 21 21 21 21 22 21 20 19 17 17 17 18 19 18 16 15 14 14 15 16 18 20 21 21 22 22
28 28 27 27 27 27 26 25 25 24 24 23 22 21 20 19 18 18 18 19 18 19 19 19 21 23 23 22 22 22 22 22 23 23 23 24 24 23 22 21 21 22 21 21 20 19 18 18 18 19 19 18 17 16 15 15 16 18 20 20 21 22 21
28 28 27 27 27 27 26 25 24 24 24 22 20 19 19 18 18 18 18 18 18 18 19 21 24 25 25 24 25 26 26 25 24 24 25 26 26 25 23 22 22 21 21 21 20 19 19 19 19 19 20 18 18 18 19 17 15 15 15 16 17 19 20
28 28 27 28 28 27 26 25 25 25 24 20 18 18 19 19 18 19 18 17 18 18 18 21 24 27 27 27 27 27 27 27 26 26 26 26 26 25 24 22 21 20 20 20 20 19 19 19 19 19 19 18 17 18 19 17 15 15 15 14 16 19 21
28 28 27 28 27 27 26 25 26 25 21 18 19 21 20 19 18 19 18 18 18 18 19 20 23 25 27 27 26 26 27 27 27 27 27 27 26 25 24 21 18 18 19 18 18 19 18 17 18 18 17 17 18 18 18 16 16 18 17 15 16 18 19
27 28 28 28 27 27 26 26 27 24 20 19 21 23 22 20 19 18 18 18 18 19 20 21 23 25 25 24 24 25 26 27 27 27 28 28 27 25 25 22 17 16 17 17 17 18 17 15 17 18 18 18 19 19 17 17 17 17 16 15 14 16 18
27 27 28 28 27 27 27 28 27 23 21 22 23 23 24 24 22 20 20 20 20 21 21 23 25 25 24 23 24 25 27 28 28 28 29 29 28 28 28 25 21 18 16 16 16 16 15 16 19 20 19 18 18 18 17 17 16 15 15 13 13 13 13
28 28 27 27 27 28 28 28 26 23 22 24 24 24 25 25 25 25 25 25 25 24 23 22 23 24 24 25 25 27 28 29 30 30 29 29 29 29 30 29 28 25 20 18 18 16 16 19 20 20 19 19 19 17 16 15 15 15 15 15 16 14 11
28 28 27 27 27 28 29 29 27 24 23 24 24 25 25 24 25 25 25 26 26 26 25 24 25 26 27 27 27 28 29 29 30 30 29 29 29 29 29 30 31 30 27 25 24 23 23 24 23 22 23 24 21 17 15 14 15 16 16 16 17 16 12
28 28 28 28 28 28 29 29 28 25 24 24 24 24 24 24 24 24 24 24 23 23 24 24 24 25 26 27 27 28 29 29 30 29 29 29 29 29 29 28 30 31 30 30 29 29 30 29 26 27 28 25 21 19 18 17 16 16 16 17 19 19 17
28 28 28 28 27 28 29 30 28 25 24 24 24 24 24 24 25 25 24 24 24 23 23 22 23 24 25 27 27 28 29 30 30 29 29 29 29 29 29 29 30 29 29 30 32 33 33 30 28 29 29 26 22 21 20 19 18 17 15 15 16 16 16
27 27 27 27 27 27 29 30 28 25 24 24 23 23 23 23 23 24 24 24 24 24 24 24 24 25 27 29 30 30 29 29 29 29 29 30 31 30 30 30 29 27 27 28 30 33 35 34 32 32 31 29 26 25 23 21 17 14 12 11 10 11 13
27 27 26 26 26 26 28 30 28 24 23 22 21 21 22 22 22 22 22 23 23 23 24 25 26 26 28 28 27 24 21 22 26 28 27 28 29 29 29 30 29 27 27 27 27 29 31 33 33 32 31 29 26 26 25 22 17 15 15 13 10 9 12
26 25 25 25 25 25 25 26 26 22 20 21 21 20 21 21 20 20 20 21 22 22 23 25 27 26 23 19 14 11 11 14 19 25 27 27 27 27 29 30 29 28 28 27 27 27 28 28 29 29 29 28 27 26 25 23 22 20 18 15 11 9 11
23 22 22 22 24 23 21 23 26 23 20 20 20 20 20 19 19 20 20 20 20 21 22 24 23 20 16 12 8 7 9 11 14 18 24 28 28 28 29 30 28 27 27 27 28 28 28 29 29 28 28 28 27 27 27 27 27 25 20 16 14 13 11
21 22 21 21 22 22 21 22 25 24 20 19 20 20 20 19 19 19 19 19 19 19 19 19 19 17 14 12 11 10 9 11 13 15 18 22 27 29 30 29 27 26 27 27 28 29 28 29 29 29 28 27 26 25 27 30 31 31 28 22 16 14 13
20 20 20 19 18 18 19 21 24 24 21 20 20 20 19 19 19 18 18 19 19 16 14 15 17 17 15 13 12 12 11 11 13 15 16 17 20 23 25 26 25 25 26 26 26 27 27 26 26 27 28 28 27 26 27 29 31 33 34 30 24 18 15
20 19 18 18 18 19 21 21 22 23 21 19 20 20 20 20 19 19 20 20 17 14 13 14 15 15 14 12 12 12 13 13 14 15 15 16 18 19 19 19 21 21 22 24 25 24 24 24 24 24 25 26 28 28 29 29 29 30 32 33 32 27 20
19 18 18 19 21 21 21 20 20 21 20 18 18 19 19 19 20 21 21 19 16 14 14 13 14 14 14 13 13 14 15 15 15 16 16 17 17 14 10 9 11 11 13 18 22 22 23 24 24 23 24 26 27 27 28 29 29 29 29 29 30 29 26
18 17 16 18 19 19 19 18 17 17 16 16 17 17 17 18 19 19 17 14 12 12 12 12 13 14 14 14 15 16 17 16 16 17 16 14 13 10 8 9 11 11 10 12 17 21 24 25 24 24 25 27 26 24 23 24 27 29 29 29 29 29 28
15 14 14 14 14 15 16 15 14 14 13 14 15 15 14 13 11 9 9 9 9 10 12 13 14 14 15 16 16 16 16 17 17 16 13 11 11 11 12 13 13 13 10 10 14 19 22 23 24 25 26 26 23 21 20 21 23 26 28 28 27 28 28
12 12 12 12 11 12 14 14 13 13 12 12 13 12 10 7 5 5 6 8 9 10 11 13 13 13 15 15 16 16 16 16 16 14 11 11 13 14 15 15 14 14 11 10 11 13 16 19 22 24 23 21 20 19 20 20 21 22 24 25 24 24 25
12 12 12 11 10 10 11 12 12 11 10 11 11 10 9 7 7 8 9 9 10 12 12 13 13 14 15 15 16 16 15 14 14 12 11 12 14 15 15 15 14 14 13 12 11 10 11 15 19 20 19 18 19 20 21 21 20 20 20 21 21 19 19
14 14 14 12 10 8 8 10 11 9 9 11 11 9 8 7 7 7 9 10 11 12 12 13 15 15 15 15 14 14 13 12 11 10 10 11 12 12 12 12 12 12 12 11 12 12 11 12 14 16 18 19 20 21 22 22 21 21 20 18 17 15 15
18 19 18 16 13 10 8 9 10 8 9 10 10 9 8 8 8 9 11 12 12 11 11 12 14 14 14 13 12 12 10 9 9 9 9 9 9 9 9 9 9 9 9 8 9 10 11 11 11 13 17 19 21 22 22 22 21 20 18 17 16 15 16
20 20 19 18 17 15 12 9 7 7 9 9 9 10 10 11 12 13 13 12 11 10 11 12 12 12 12 12 11 9 8 8 7 7 7 7 7 7 7 6 6 6 6 6 6 6 8 9 10 11 12 15 19 20 20 21 22 21 18 17 16 15 16
20 18 16 16 16 16 14 11 9 8 9 9 9 9 10 11 10 9 8 8 10 11 11 11 11 10 10 9 8 7 7 6 6 6 7 7 7 6 6 5 5 5 4 4 4 4 4 5 6 8 8 9 12 14 16 19 20 20 19 18 17 16 16
19 19 19 18 18 17 14 13 12 10 9 8 8 8 6 5 4 5 5 5 7 8 8 8 9 10 8 7 6 6 6 6 6 6 7 7 7 7 6 5 4 4 3 2 3 3 3 2 3 4 4 5 6 8 10 14 17 18 18 18 18 17 17
17 17 18 19 21 24 20 13 10 10 8 7 6 5 2 0 0 2 4 5 4 3 4 5 7 8 7 6 6 6 6 6 6 6 6 6 6 6 5 5 5 4 2 2 3 3 2 2 2 2 2 3 3 4 5 7 10 12 13 13 14 15 17
11 9 6 5 8 13 15 11 8 7 6 5 3 2 1 2 3 3 5 6 6 5 5 6 7 8 8 7 8 7 6 6 6 6 5 5 5 5 4 4 5 5 4 4 4 4 3 2 2 2 2 2 2 2 3 4 5 6 7 6 6 8 11
9 8 7 7 8 7 6 6 5 4 3 3 3 3 2 4 7 7 6 6 7 7 7 7 8 9 9 8 8 7 6 6 5 5 5 5 4 4 4 4 5 6 5 5 4 4 4 3 3 2 2 2 2 2 2 2 2 2 3 4 4 4 6
9 8 6 5 5 5 4 3 2 4 4 4 4 5 4 6 7 7 5 5 6 7 8 8 8 9 8 7 7 6 5 5 5 5 5 4 3 2 2 3 4 4 4 4 4 4 4 3 3 3 2 2 2 2 2 2 2 2 3 4 4 5 6
Wind_Direction
235 236 238 238 237 236 236 239 241 244 246 248 252 256 258 257 253 248 248 250 248 248 250 252 253 254 254 252 250 248 245 242 240 239 238 239 241 244 246 249 251 259 267 264 262 266 274 282 285 287 289 290 292 293 295 301 302 300 301 302 302 300 298
235 238 239 239 239 239 240 242 244 246 248 249 252 256 257 255 251 248 248 248 247 247 248 250 251 253 254 254 252 251 250 247 244 241 240 239 240 242 243 244 248 256 264 265 263 265 270 274 277 280 282 284 286 289 293 295 292 293 297 298 297 294 292
237 239 240 241 242 242 242 242 244 247 249 251 253 255 256 252 247 246 246 244 244 243 242 243 246 249 252 252 250 250 252 251 247 244 242 242 242 242 243 242 244 250 258 264 265 265 268 270 271 273 275 277 278 280 285 287 288 291 292 291 292 292 290
239 240 241 242 243 242 241 241 244 247 250 252 254 256 257 255 250 247 246 244 243 243 241 240 241 244 247 248 248 250 251 250 248 245 243 243 242 241 242 243 243 245 251 259 264 263 264 267 269 271 271 272 273 273 274 278 281 284 285 285 289 291 289
240 241 241 242 241 240 239 241 244 248 251 253 255 256 257 256 252 247 246 247 246 245 243 241 242 247 250 248 246 248 248 248 246 244 241 241 240 239 241 243 244 246 248 252 257 260 262 265 267 269 270 269 270 272 271 271 272 275 280 285 287 286 285
240 241 241 240 239 238 239 242 245 248 252 254 255 255 253 250 247 245 245 245 245 244 242 241 244 250 251 247 245 247 249 248 247 245 242 240 239 240 240 241 242 244 245 248 252 255 258 260 262 264 265 264 265 269 271 271 271 272 274 278 282 284 284
240 241 241 239 238 238 239 243 245 248 252 254 253 252 249 245 244 245 244 243 242 242 242 242 245 249 248 246 247 250 251 250 248 247 246 245 243 241 238 239 241 241 242 245 249 251 253 254 255 257 258 258 259 261 262 265 268 270 268 267 271 276 280
239 240 239 239 239 238 240 242 244 248 251 250 245 244 245 243 242 242 242 241 242 241 241 244 247 249 249 249 251 252 252 251 250 248 247 247 246 241 236 236 236 236 239 242 244 246 248 250 251 251 251 250 249 250 251 251 255 262 264 263 264 268 272
238 238 238 238 238 238 240 241 244 247 248 244 243 243 242 240 239 241 240 240 242 242 242 245 248 249 250 251 253 254 254 255 253 249 249 250 246 239 235 233 231 232 234 236 239 242 243 245 248 246 242 239 235 237 240 241 244 254 259 261 264 264 263
238 237 237 236 236 238 240 242 246 248 245 242 245 247 245 240 237 237 238 240 243 245 244 245 248 251 253 255 256 256 256 255 250 246 248 251 248 241 236 230 224 225 228 228 232 236 236 239 243 240 235 236 237 237 239 239 239 246 253 256 261 262 260
237 236 236 235 236 240 241 245 248 249 247 245 245 247 248 245 241 238 238 241 244 246 248 251 255 257 258 258 257 255 255 253 248 244 244 247 247 246 243 237 228 222 220 220 227 232 230 231 240 243 238 238 243 242 238 237 238 242 247 247 250 259 259
235 234 234 235 238 241 244 248 251 251 250 249 245 243 244 246 245 244 245 247 248 249 249 249 255 260 260 260 259 258 257 255 252 249 246 245 243 243 244 243 240 236 227 219 222 227 227 229 236 244 242 238 239 239 237 239 240 241 244 244 245 252 256
233 233 234 236 239 243 247 252 254 253 251 250 247 244 242 242 243 242 243 245 247 250 251 250 255 260 262 262 261 259 259 258 257 255 252 249 246 242 241 240 240 241 238 232 229 228 232 235 236 239 245 246 244 238 233 236 238 238 238 240 247 251 253
232 233 235 237 241 246 251 255 258 257 253 250 247 245 242 242 242 241 241 242 242 245 249 251 254 258 261 264 263 260 258 256 253 253 253 252 249 246 244 241 240 239 237 233 232 233 239 243 242 244 251 253 248 239 234 233 236 239 238 240 249 253 253
232 233 236 239 243 249 255 258 260 257 252 249 247 245 244 244 243 243 242 242 242 242 244 247 249 251 255 260 261 259 257 253 248 246 247 249 249 247 245 244 244 242 239 234 233 236 242 246 245 249 255 255 248 242 242 242 244 249 252 252 256 255 251
232 235 237 241 246 252 257 261 260 255 251 249 247 245 244 242 242 242 240 241 242 242 244 246 247 249 252 257 261 260 256 250 245 242 242 243 246 248 247 246 245 244 243 241 238 241 247 250 250 253 257 257 251 247 245 242 243 249 252 251 253 253 248
232 235 239 244 249 254 258 262 262 255 250 248 244 242 241 240 241 241 239 240 241 240 243 246 248 250 253 258 262 260 258 251 240 234 236 240 242 245 248 251 251 247 244 241 240 242 247 252 253 252 252 250 247 247 244 238 237 242 243 242 246 250 249
233 237 241 245 250 253 255 261 263 257 249 248 244 240 239 240 241 242 240 240 240 240 242 246 250 251 250 254 258 250 252 255 240 230 232 239 242 241 244 251 254 252 249 245 242 242 244 248 250 248 245 242 239 239 236 231 234 239 236 234 238 241 249
233 236 240 243 249 251 251 257 263 260 252 249 245 240 238 237 238 240 239 238 239 241 241 244 248 247 241 243 257 251 247 256 254 242 236 237 236 234 241 251 251 248 248 246 243 243 242 243 245 245 245 245 241 237 233 230 234 237 231 225 228 231 238
232 235 240 244 249 254 253 254 259 260 255 250 247 241 236 234 236 237 236 237 240 238 236 237 241 241 238 242 254 262 262 263 265 262 253 244 234 232 243 256 253 246 247 245 243 245 243 241 244 245 246 248 245 240 235 231 232 235 232 226 220 218 222
232 237 242 245 245 248 251 253 257 260 258 254 250 244 237 236 238 236 235 238 238 231 227 234 239 239 242 248 253 260 267 269 268 269 268 258 246 244 255 261 255 250 250 246 242 244 243 241 244 245 246 248 247 244 238 232 230 232 233 230 223 217 216
232 237 242 246 246 248 254 258 261 264 262 254 248 245 240 237 237 237 236 234 232 229 231 238 242 244 247 251 255 259 264 270 274 273 268 265 263 263 263 257 251 252 250 242 236 235 234 235 237 240 243 245 245 244 241 236 230 229 231 232 229 225 219
232 238 243 249 253 257 261 263 263 262 259 251 246 244 240 237 238 240 235 227 224 230 234 235 240 248 252 252 256 262 266 268 272 274 271 270 270 267 257 253 262 269 259 243 233 225 225 229 231 234 239 241 242 243 242 239 234 231 231 232 232 230 228
231 236 242 249 256 261 265 267 265 259 252 247 245 243 240 240 242 239 230 221 224 233 237 238 242 246 250 255 260 266 268 269 268 269 269 267 261 257 265 281 290 295 286 258 236 225 226 229 229 231 238 241 243 246 246 243 240 236 233 233 233 232 231
227 230 236 243 250 258 265 267 264 256 247 240 238 239 239 242 245 236 224 226 237 241 243 245 246 247 250 255 259 262 265 268 265 259 256 255 256 264 279 288 291 290 283 264 242 233 231 231 232 235 242 246 247 247 247 247 244 239 235 234 235 236 235
218 222 232 237 241 252 262 266 261 254 245 230 225 229 232 234 243 249 249 251 252 251 252 251 250 252 254 256 260 262 261 262 258 250 247 258 270 279 285 285 283 277 268 259 251 240 233 236 240 242 244 245 244 243 243 244 241 237 235 234 233 235 236
215 218 225 230 234 242 254 261 257 248 232 214 210 216 224 235 252 259 255 252 248 248 255 259 256 257 261 262 260 255 247 244 246 248 258 270 276 280 279 274 268 262 256 256 256 249 242 246 248 247 244 240 237 238 242 242 235 230 233 233 228 227 233
210 214 217 221 225 227 238 253 253 235 207 197 200 210 224 237 250 250 244 245 248 250 257 262 260 259 260 258 247 231 224 232 244 255 268 273 271 267 261 257 255 253 251 251 252 254 255 252 246 243 242 239 236 235 238 237 229 225 227 225 216 217 229
221 223 224 224 224 219 220 234 235 213 191 193 203 216 225 229 235 244 250 250 248 249 255 260 261 254 244 234 225 217 218 231 241 247 253 255 252 249 246 246 248 248 248 251 254 259 263 259 250 243 238 233 230 230 232 229 222 216 215 210 204 210 223
232 234 232 231 230 223 217 223 227 208 199 206 217 226 233 236 239 246 250 244 238 244 253 253 247 234 216 207 208 208 209 215 220 225 230 233 234 236 234 232 233 235 242 253 257 258 262 263 259 252 240 227 220 221 223 221 215 209 206 203 201 208 219
233 235 234 236 232 222 218 231 242 228 213 217 228 236 241 243 243 250 259 253 246 248 247 234 216 199 188 188 190 190 197 209 217 221 225 227 227 225 218 213 216 222 231 249 260 259 260 264 261 257 252 235 220 213 211 211 209 206 206 208 209 213 221
230 229 229 233 233 229 231 242 241 228 220 229 238 239 242 250 260 272 273 250 228 218 211 202 191 182 180 184 185 187 203 214 216 221 225 225 222 219 214 209 208 207 212 242 272 271 259 262 265 261 260 252 234 217 205 202 203 204 206 209 211 215 221
231 231 231 234 233 231 232 233 223 213 219 232 235 232 231 45 335 241 226 210 193 175 180 194 196 189 188 193 197 201 209 213 215 222 226 226 225 220 215 211 205 192 194 238 266 277 271 269 276 271 274 272 253 234 220 209 206 208 210 211 210 214 220
218 204 194 180 189 203 208 204 198 205 219 227 218 193 158 172 192 216 229 237 255 270 254 229 212 200 195 196 198 202 208 213 220 226 226 228 232 227 218 208 195 188 203 235 255 264 262 263 273 269 277 287 273 249 241 236 230 226 223 219 216 218 223
184 160 147 126 119 136 161 173 183 199 200 174 159 156 178 222 236 251 254 240 237 242 237 220 203 192 186 186 189 196 207 215 225 234 236 236 234 224 214 200 191 199 223 243 256 258 249 248 259 258 259 275 275 271 262 253 257 254 241 238 239 238 241
187 177 170 160 147 135 122 121 184 194 153 131 164 207 247 257 244 236 220 192 188 195 196 190 184 181 179 182 189 194 203 215 226 236 240 240 232 216 199 192 198 214 235 245 251 254 252 254 259 253 253 271 265 261 265 262 263 273 264 258 258 251 252